Regional Weather Roundup
Issued by NWS Sterling, VA

Home | Current Version | Previous Version | Graphics & Text | Print | Product List | Glossary On
Versions: 1 2 3 4 5 6 7 8 9 10 11 12 13 14 15 16 17 18 19 20 21 22 23 24 25 26 27 28 29 30 31 32 33 34 35 36 37 38 39 40 41 42 43 44 45 46 47 48 49 50
000
ASUS41 KLWX 291310
RWRLWX

REGIONAL WEATHER ROUNDUP
NATIONAL WEATHER SERVICE BALTIMORE MD/WASHINGTON DC
900 AM EDT WED JUL 29 2015

Note: "FAIR" indicates few or no clouds below 12,000 feet
with no significant weather and/or obstructions to visibility.
 TC=TEMPERATURE CELSIUS

 * =Non NWS site. Station does not report precipitation (e.g. rain,
    snow, etc.), thunder, or fog.

DCZ001-MDZ009-015-VAZ040>042-051-053>054-291400-
WASHINGTON METRO

CITY           SKY/WX    TMP DP  RH WIND       PRES   REMARKS
WASHINGTON NAT PTSUNNY   82  75  79 S6        30.02R
DULLES         CLOUDY    76  73  91 S6        30.03R
ANDREWS AFB    MOSUNNY   81  74  80 S7        30.02R
FT BELVOIR     MOSUNNY   77  76  95 S2        30.02R
QUANTICO       CLOUDY    78  73  84 CALM      30.03R
COLLEGE PARK*  MOSUNNY   81  75  83 CALM      30.01R
LEESBURG*      CLOUDY    77  75  94 S8        30.03S
MANASSAS*      CLOUDY    75  75 100 CALM      30.03R FOG
GAITHERSBURG*  CLOUDY    77  72  83 CALM      30.07R

$$

MDZ006>007-011-014-291400-
BALTIMORE METRO

CITY           SKY/WX    TMP DP  RH WIND       PRES   REMARKS
BWI AIRPORT    PTSUNNY   80  73  79 CALM      30.02R
MD SCIENCE CTR   N/A     81  73  76 MISG      30.01R
MARTIN STATE   MOSUNNY   81  77  89 CALM      30.03R
ANNAPOLIS      SUNNY     81  72  74 VRB3      30.01R
FORT MEADE*    MOSUNNY   77  72  83 CALM      30.04R

$$

MDZ012-015-019>023-291400-
MARYLAND EASTERN SHORE

CITY           SKY/WX    TMP DP  RH WIND       PRES   REMARKS
OCEAN CITY     SUNNY     82  75  79 MISG      30.03R
SALISBURY      MOSUNNY   81  76  84 S8        30.03R
BAY BRIDGE AP*   N/A     81  73  78 S3        30.02R
CAMBRIDGE*     SUNNY     81  75  83 S3        30.02R
EASTON*        MOSUNNY   81  81 100 CALM      30.05R HX  91

$$

MDZ017>025-291400-
SOUTHERN MARYLAND

CITY           SKY/WX    TMP DP  RH WIND       PRES   REMARKS
PATUXENT RIVER PTSUNNY   77  72  84 SW9       30.02R
ST INIGOES     PTSUNNY   79  72  79 SW8       30.02R
LEONARDTOWN*   CLOUDY    77  70  78 CALM      30.04R

$$

MDZ003>005-291400-
NORTH CENTRAL MARYLAND

CITY           SKY/WX    TMP DP  RH WIND       PRES   REMARKS
FREDERICK*     CLOUDY    75  73  94 SW3       30.05R FOG
HAGERSTOWN APT SUNNY     76  71  85 SE3       30.02S
WESTMINSTER*   CLOUDY    75  73  94 CALM      30.04S

$$

MDZ501>502-291400-
WESTERN MARYLAND

CITY           SKY/WX    TMP DP  RH WIND       PRES   REMARKS
OAKLAND*       CLOUDY    68 N/A N/A SE9       30.11S FOG
CUMBERLAND*    CLOUDY    73  72  94 SW3       30.06F

$$

VAZ025>031-291400-
SHENANDOAH VALLEY

CITY           SKY/WX    TMP DP  RH WIND       PRES   REMARKS
WINCHESTER*    CLOUDY    75  72  88 CALM      30.03S FOG
FRONT ROYAL*   CLOUDY    72  72 100 CALM      30.02S
LURAY*         PTSUNNY   73  73 100 CALM      30.04S
NEW MARKET*    CLOUDY    72  71  95 CALM      30.02S
STAUNTON*      CLOUDY    76  72  88 CALM      30.07S
WAYNESBORO*    CLOUDY    73  71  95 CALM      30.07S

$$

WVZ021-048>050-054>055-291400-
EASTERN WEST VIRGINIA PANHANDLE

CITY           SKY/WX    TMP DP  RH WIND       PRES   REMARKS
MARTINSBURG    MOSUNNY   75  71  87 SE3       30.02S
PETERSBURG*    CLOUDY   N/A N/A N/A CALM      30.05S

$$

VAZ036>039-050-291400-
CENTRAL FOOTHILLS

CITY           SKY/WX    TMP DP  RH WIND       PRES   REMARKS
CHARLOTTESVILL CLOUDY    75  72  90 CALM      30.04R FOG
CULPEPER*      CLOUDY    73  72  99 CALM      30.03S FOG
ORANGE*        PTSUNNY   77  73  88 CALM      30.04R
GORDONSVILLE*  PTSUNNY   75  73  94 CALM      30.03R
WARRENTON*     CLOUDY    75  75 100 CALM      30.03R

$$

VAZ055>057-291400-
NORTH AND CENTRAL PIEDMONT

CITY           SKY/WX    TMP DP  RH WIND       PRES   REMARKS
FREDERICKSBRG* CLOUDY    29  29 100 CALM      30.02R FOG
STAFFORD*      CLOUDY    74  72  93 CALM      30.07R

$$

NCZ024-NYZ072-PAZ021-071-VAZ022-071-291400-
OTHER REGIONAL OBSERVATIONS

CITY           SKY/WX    TMP DP  RH WIND       PRES   REMARKS
NEW YORK CITY  SUNNY     83  65  54 CALM      30.02R
PHILADELPHIA   PTSUNNY   82  72  71 SW6       30.01R
PITTSBURGH     CLOUDY    77  68  73 E5        30.01R
ROANOKE        CLOUDY    74  71  91 SW3       30.08R
RICHMOND       LGT RAIN  77  72  84 S5        30.03R
RALEIGH        PTSUNNY   79  72  79 S6        30.04R

$$

ANZ530>537-291400-
MARINE OBSERVATIONS

STATION/POSITION TIME  TEMP    WIND        PRES
                       AIR SEA DIR/SP/G
                 (UTC) (F)     (DEG/KT/KT) (MB)
THOMAS PT LIGHT  NOT AVBL
BALT KEY BRIDGE  1200   77     280/  2/  3 1015.8R
COVE POINT       1200   78     230/  7/  9 1016.6R
LEWISETTA        1200   78 84  240/  8/ 10 1016.0R
SOLOMONS ISLAND  1200      82                N/A

$$



USA.gov is the U.S. government's official web portal to all federal, state and local government web resources and services.